2023/09/30 00:00:00, 2.9,17.2
2023/09/30 00:10:00, 3.1,17.2
2023/09/30 00:20:00, 3.1,16.9
2023/09/30 00:30:00, 3.7,17.0
2023/09/30 00:40:00,10.8,16.9
2023/09/30 00:50:00,15.0,17.2
2023/09/30 01:00:00,15.1,16.9
2023/09/30 01:10:00,14.8,17.2
2023/09/30 01:20:00,14.3,16.8
2023/09/30 01:30:00,11.2,16.8
2023/09/30 01:40:00,11.0,16.8
2023/09/30 01:50:00,11.0,16.8
2023/09/30 02:00:00,15.1,16.7
2023/09/30 02:10:00,16.1,16.7
2023/09/30 02:20:00,15.9,16.7
2023/09/30 02:30:00,16.0,16.5
2023/09/30 02:40:00,16.2,16.7
2023/09/30 02:50:00,16.3,16.4
2023/09/30 03:00:00,16.4,16.5
2023/09/30 03:10:00,16.3,16.5
2023/09/30 03:20:00,15.3,16.4
2023/09/30 03:30:00, 5.4,16.1
2023/09/30 03:40:00, 4.5,15.9
2023/09/30 03:50:00, 4.4,16.3
2023/09/30 04:00:00,---,16.3
2023/09/30 04:10:00, 4.3,16.1
2023/09/30 04:20:00, 4.3,15.9
2023/09/30 04:30:00, 4.3,15.9
2023/09/30 04:40:00, 4.3,16.1
2023/09/30 04:50:00, 4.2,15.9
2023/09/30 05:00:00, 4.2,15.9
2023/09/30 05:10:00, 4.2,15.8
2023/09/30 05:20:00, 4.3,16.0
2023/09/30 05:30:00, 4.4,15.9
2023/09/30 05:40:00, 4.7,15.9
2023/09/30 05:50:00, 5.9,15.8
2023/09/30 06:00:00, 8.1,15.9
2023/09/30 06:10:00,12.2,15.8
2023/09/30 06:20:00,13.3,15.9
2023/09/30 06:30:00,13.8,16.2
2023/09/30 06:40:00,13.9,16.3
2023/09/30 06:50:00,14.0,16.2
2023/09/30 07:00:00,13.9,16.4
2023/09/30 07:10:00,13.7,16.4
2023/09/30 07:20:00,13.7,16.7
2023/09/30 07:30:00,13.6,16.8
2023/09/30 07:40:00,13.4,17.5
2023/09/30 07:50:00,13.0,20.0
2023/09/30 08:00:00,14.5,19.1
2023/09/30 08:10:00,20.7,19.3
2023/09/30 08:20:00, 0.1,20.5
2023/09/30 08:30:00, 0.9,21.1
2023/09/30 08:40:00, 9.7,21.5
2023/09/30 08:50:00, 1.7,22.5
2023/09/30 09:00:00, 1.5,23.2
2023/09/30 09:10:00, 1.3,23.8
2023/09/30 09:20:00, 1.1,24.6
2023/09/30 09:30:00, 1.1,24.9
2023/09/30 09:40:00, 1.2,25.8
2023/09/30 09:50:00, 1.1,27.5
2023/09/30 10:00:00, 0.9,27.8
2023/09/30 10:10:00, 0.9,28.8
2023/09/30 10:20:00, 1.1,28.9
2023/09/30 10:30:00, 1.2,29.5
2023/09/30 10:40:00, 1.2,28.5
2023/09/30 10:50:00, 0.9,29.2
2023/09/30 11:00:00, 0.9,28.8
2023/09/30 11:10:00, 0.9,28.6
2023/09/30 11:20:00, 0.9,28.6
2023/09/30 11:30:00, 1.0,28.4
2023/09/30 11:40:00, 0.9,28.6
2023/09/30 11:50:00, 0.9,29.4
2023/09/30 12:00:00, 0.9,31.0
2023/09/30 12:10:00, 0.9,29.7
2023/09/30 12:20:00, 1.1,28.5
2023/09/30 12:30:00, 0.9,27.4
2023/09/30 12:40:00, 0.9,27.1
2023/09/30 12:50:00, 0.9,28.0
2023/09/30 13:00:00, 0.9,27.5
2023/09/30 13:10:00, 0.9,27.4
2023/09/30 13:20:00, 0.8,29.1
2023/09/30 13:30:00, 0.8,28.5
2023/09/30 13:40:00, 0.9,28.5
2023/09/30 13:50:00, 1.0,27.0
2023/09/30 14:00:00, 1.0,26.9
2023/09/30 14:10:00, 1.0,27.1
2023/09/30 14:20:00, 1.1,24.9
2023/09/30 14:30:00, 1.2,24.0
2023/09/30 14:40:00, 1.2,24.0
2023/09/30 14:50:00, 1.3,23.7
2023/09/30 15:00:00, 1.2,23.5
2023/09/30 15:10:00, 1.2,23.3
2023/09/30 15:20:00, 1.2,22.8
2023/09/30 15:30:00, 1.2,22.4
2023/09/30 15:40:00, 1.2,21.7
2023/09/30 15:50:00, 1.2,20.6
2023/09/30 16:00:00, 1.2,20.4
2023/09/30 16:10:00, 2.2,20.3
2023/09/30 16:20:00, 1.2,19.8
2023/09/30 16:30:00, 1.2,19.9
2023/09/30 16:40:00, 1.1,19.7
2023/09/30 16:50:00, 1.1,19.7
2023/09/30 17:00:00, 1.1,19.7
2023/09/30 17:10:00, 1.0,19.3
2023/09/30 17:20:00, 0.9,19.1
2023/09/30 17:30:00, 0.9,18.9
2023/09/30 17:40:00, 0.9,18.7
2023/09/30 17:50:00, 0.9,18.6
2023/09/30 18:00:00, 0.9,18.5
2023/09/30 18:10:00, 0.9,18.7
2023/09/30 18:20:00, 0.9,18.3
2023/09/30 18:30:00, 0.9,18.4
2023/09/30 18:40:00, 0.9,18.3
2023/09/30 18:50:00, 0.9,18.4
2023/09/30 19:00:00, 0.9,18.2
2023/09/30 19:10:00, 0.9,18.0
2023/09/30 19:20:00, 0.9,18.1
2023/09/30 19:30:00, 0.9,18.3
2023/09/30 19:40:00, 0.9,18.2
2023/09/30 19:50:00, 0.8,18.2
2023/09/30 20:00:00, 0.9,18.0
2023/09/30 20:10:00, 0.9,18.2
2023/09/30 20:20:00, 0.8,17.8
2023/09/30 20:30:00, 0.8,17.7
2023/09/30 20:40:00, 0.8,17.9
2023/09/30 20:50:00, 0.8,18.0
2023/09/30 21:00:00, 0.8,18.0
2023/09/30 21:10:00, 0.8,17.9
2023/09/30 21:20:00, 0.8,17.8
2023/09/30 21:30:00, 0.8,18.0
2023/09/30 21:40:00, 0.9,17.7
2023/09/30 21:50:00, 0.8,17.8
2023/09/30 22:00:00, 0.8,17.7
2023/09/30 22:10:00, 0.8,17.7
2023/09/30 22:20:00, 0.8,17.6
2023/09/30 22:30:00, 0.8,17.8
2023/09/30 22:40:00, 0.8,17.8
2023/09/30 22:50:00, 0.8,17.8
2023/09/30 23:00:00, 0.8,17.6
2023/09/30 23:10:00, 0.8,17.7
2023/09/30 23:20:00, 0.8,17.8
2023/09/30 23:30:00, 0.9,17.9
2023/09/30 23:40:00, 0.8,17.8
2023/09/30 23:50:00, 0.8,17.8
